User: anonymous   Login
Location: Stigler
(35.2540°N, 95.1230°W)
Time: 08:24:35
(UTC-05:00)
Language:

Cosmos 1805 - Orbit

View from above orbital plane
View from above orbital plane
View from above satellite
View from above satellite

Ground track
Ground track

The orbit data is extracted from the following two-line orbital elements,

1 17191U 86097A   17264.67205941 +.00000119 +00000-0 +51366-5 0  9990
2 17191 082.4732 294.4460 0006203 100.5521 259.6409 15.11867819677935
Epoch (UTC): 21 September 2017 16:07:45
Eccentricity: 0.0006203
inclination: 82.4732°
perigee height: 526 km
apogee height: 535 km
right ascension of ascending node: 294.4460°
argument of perigee: 100.5521°
revolutions per day: 15.11867819
mean anomaly at epoch: 259.6409°
orbit number at epoch: 67793

The dashed part of the orbit path shows where the satellite is in the earth's shadow,  

DLR